Torna al catalogo

STARLINK-33601

AttivoComunicazioniVLEO
NORAD 62768·PAYLOAD·🇺🇸 United States

Lanciato Jan 21, 2025 da Vandenberg Space Force Base

Loading…

Prossimi Passaggi (prossime 24 ore)

TLE

AggiornatoSource: CelesTrak SupGP

Epoca: Sep 14, 2026, 22:53 UTC

1 62768C 25015L   26257.95395833 -.00047130  00000+0 -13923-2 0  2572
2 62768  53.1564 159.4800 0001221  90.3350 241.9056 15.34419295    19

Traccia STARLINK-33601 in tempo reale con AllMySat

Download on the App Store